Location: Hall+in+Tirol
(47.2830°N, 11.5170°E)
Time: 23:44:42
(UTC+02:00)

Daily predictions for brighter satellites

Satellite Brightness Start Highest point End
(mag) Time Altitude Azimuth Time Altitude Azimuth Time Altitude Azimuth
Spot 2 Rocket 4.2 20:21:09 10° S 20:26:10 60° WSW 20:31:13 10° NNW
Cosmos 1939 Rocket 4.5 20:23:42 10° ESE 20:26:45 20° ENE 20:29:50 10° NNE
Cosmos 2263 Rocket 3.9 20:25:00 10° N 20:28:45 18° NE 20:32:29 10° E
CZ-4B DEB 2.9 20:27:53 10° SSE 20:31:09 84° WSW 20:34:28 10° NNW
ALOS 2.3 20:27:07 10° SSE 20:31:47 79° ENE 20:36:29 10° N
Cosmos 1937 Rocket 3.6 20:27:50 10° NNW 20:33:06 67° ENE 20:38:23 10° SSE
Cosmos 1934 Rocket 4.4 20:28:59 10° SSW 20:35:09 71° W 20:41:27 10° N
Envisat 4.0 20:32:29 10° ESE 20:36:46 28° ENE 20:41:04 10° N
Cosmos 2227 Rocket 3.8 20:32:41 10° NW 20:37:48 36° WSW 20:42:54 10° S
SL-24 R/B - RUBIN 2 4.5 20:32:50 10° SSW 20:38:50 83° SE 20:45:29 10° NE
Cosmos 990 Rocket 4.2 20:34:13 10° NNW 20:39:25 57° ENE 20:44:33 10° SE
Cosmos 2322 Rocket 3.6 20:41:43 10° SE 20:45:01 16° E 20:48:19 10° ENE
Cosmos 2298 Rocket 4.4 20:39:53 10° NNW 20:45:10 68° WSW 20:50:27 10° S
H-2A R/B 2.9 20:44:08 10° SSE 20:48:03 85° W 20:52:02 10° NNW
RESURS DK-1 2.6 20:44:24 10° NNW 20:48:33 70° WSW 20:52:39 10° SSE
USA 186 1.3 20:46:31 10° SSE 20:49:24 88° E 20:52:08 10° NNW
Cosmos 1153 Rocket 4.4 20:44:40 10° S 20:50:49 78° E 20:56:59 10° N
USA 215 4.3 20:45:01 10° ENE 20:50:58 39° N 20:56:54 10° WNW
Cosmos 2297 Rocket 3.7 20:47:13 10° NW 20:52:24 38° WSW 20:57:33 10° S
ERS-1 Rocket 3.3 20:49:23 10° SE 20:54:12 48° ENE 20:59:01 10° N
Cosmos 1606 Rocket 4.3 20:50:41 10° SSE 20:54:35 31° E 20:58:31 10° NNE
Cosmos 1842 4.5 20:51:41 10° NNE 20:54:58 25° ENE 20:57:10 16° ESE
Cosmos 1666 4.1 20:54:12 15° ESE 20:55:53 19° E 20:58:38 10° NE
Cosmos 2058 Rocket 4.3 20:53:16 12° SE 20:56:19 22° E 20:59:49 10° NE
CZ-4 DEB 2.8 21:03:48 15° SSE 21:06:16 58° ENE 21:09:23 10° N
Cosmos 1763 Rocket 3.6 21:01:45 10° S 21:06:36 47° ESE 21:11:27 10° NNE
Cosmos 2227 4.2 21:01:05 10° NNW 21:06:52 82° ENE 21:12:07 12° SSE
Cosmos 1500 3.2 21:03:17 10° SSW 21:07:03 80° W 21:10:52 10° N
Cosmos 1340 2.6 21:04:32 10° N 21:08:19 65° ENE 21:11:33 14° SSE
Cosmos 1802 Rocket 4.1 21:03:17 10° SSE 21:09:32 57° E 21:15:49 10° NNE
Tiangong 1 3.4 21:09:56 10° WSW 21:11:46 15° SSW 21:13:13 11° S
Resurs 01 Rocket 4.2 21:08:38 10° SW 21:12:00 21° W 21:15:24 10° NW
Cosmos 2016 Rocket 4.2 21:06:26 10° SSE 21:12:19 50° E 21:18:18 10° NNE
BREEZE-M TANK 4.0 21:00:44 10° WNW 21:13:11 53° SSW 21:15:56 19° SE
Meteor 1-21 4.3 21:07:28 10° N 21:13:16 71° ENE 21:19:05 10° SSE
H-2A R/B 4.0 21:11:55 10° ENE 21:13:45 12° NE 21:15:45 10° NNE
Cosmos 1726 Rocket 3.9 21:12:18 10° SSE 21:16:27 44° E 21:20:40 10° NNE
Cosmos 1975 4.4 21:16:04 10° SW 21:19:55 39° WNW 21:23:48 10° N
Cosmos 2173 Rocket 4.0 21:17:34 10° S 21:23:56 81° E 21:30:15 10° N
Cosmos 1125 Rocket 3.6 21:18:58 10° NNW 21:24:08 58° ENE 21:27:17 23° SE
ASTEX 1 3.9 21:19:47 10° NNE 21:24:29 38° E 21:27:09 22° SE
Cosmos 1697 Rocket 3.2 21:22:37 10° SW 21:28:13 65° WNW 21:33:51 10° NNE
Cosmos 1825 Rocket 3.7 21:24:13 10° NNW 21:28:38 73° W 21:32:55 10° S
Genesis I 4.5 21:27:25 10° NNW 21:30:57 29° NE 21:32:22 23° ENE
Cosmos 841 Rocket 3.4 21:27:20 10° S 21:32:32 69° ESE 21:37:43 10° NNE
SPOT 1/Viking Rocket 4.4 21:30:41 24° ESE 21:32:52 34° ENE 21:37:32 10° N
Cosmos 540 Rocket 4.2 21:33:13 27° ESE 21:34:21 29° E 21:38:46 10° NE
ARGOS 3.9 21:34:18 25° ESE 21:36:31 35° ENE 21:41:23 10° N
Cosmos 2098 Rocket 3.8 21:32:46 10° S 21:39:09 59° E 21:44:16 10° NNE
Cosmos 1953 Rocket 3.8 21:36:59 10° NNW 21:41:27 73° W 21:44:52 17° S
Cosmos 2228 3.3 21:41:02 35° SE 21:42:07 43° E 21:46:12 10° NNE
MetOp-B 4.2 21:40:11 28° SE 21:42:57 59° ENE 21:48:14 10° N
Cosmos 405 Rocket 3.3 21:39:51 10° N 21:43:20 34° ENE 21:43:32 34° E
SL-16 R/B 2.5 21:38:19 10° S 21:43:38 43° ESE 21:48:59 10° NE
Cosmos 332 Rocket 4.3 21:42:38 32° SE 21:43:45 37° ESE 21:48:15 10° NE
Cosmos 2100 Rocket 4.3 21:37:35 10° SSW 21:43:49 69° W 21:50:01 10° N
H-2A R/B 1.8 21:43:35 33° SSE 21:45:22 78° ENE 21:49:35 10° NNW
Cosmos 371 Rocket 4.4 21:46:30 25° E 21:46:30 25° E 21:49:37 10° NE
Lacrosse 5 4.1 21:46:06 10° W 21:49:22 17° WSW 21:52:36 10° SSW
Cosmos 372 Rocket 4.0 21:46:22 10° NNW 21:51:28 61° ENE 21:53:22 37° SE
Cosmos 1980 Rocket 2.6 21:47:23 10° SW 21:53:02 67° WNW 21:58:45 10° NNE
Cosmos 1743 4.0 21:49:40 10° SSW 21:53:25 43° WNW 21:57:10 10° N
Cosmos 2360 Rocket 3.7 21:55:43 19° ENE 21:55:43 19° ENE 21:58:06 10° NE
Tsikada Rocket 4.0 21:48:30 10° N 21:54:58 80° E 21:58:58 25° SSE
PSLV R/B 3.7 21:59:33 48° NNE 21:59:33 48° NNE 22:02:05 10° N
Cosmos 1758 Rocket 4.1 21:55:18 10° NNW 21:59:33 54° W 22:02:12 21° SSW
Cosmos 1939 Rocket 3.9 21:58:39 18° SSW 22:01:24 44° W 22:05:26 10° NNW
SPOT 5 2.8 21:59:36 34° SSE 22:01:48 87° WSW 22:06:30 10° NNW
Cosmos 1816 Rocket 4.4 22:01:09 10° N 22:07:34 80° E 22:10:40 33° SSE
Terra 2.9 22:11:31 28° ENE 22:11:43 29° ENE 22:15:47 10° N
Cosmos 2263 Rocket 2.1 22:08:00 10° NNW 22:13:37 80° ENE 22:15:15 47° SE
Cosmos 1725 Rocket 4.0 22:09:11 14° S 22:14:43 85° W 22:21:02 10° N
Envisat 4.0 22:12:00 17° SSW 22:15:36 43° W 22:20:28 10° NNW
deb Chang Zheng 4 3.7 22:11:32 10° NNE 22:16:00 77° WNW 22:18:18 28° SSW
CZ-4B R/B 3.9 22:13:27 10° NNE 22:17:23 41° ENE 22:17:23 41° ENE
GP-B 4.1 22:17:35 10° NNE 22:20:48 32° ENE 22:20:48 32° ENE
CZ-4 SHROUD 4.4 22:23:59 41° NNW 22:23:59 41° NNW 22:26:09 10° NNW
Okean 3 Rocket 4.4 22:19:04 10° N 22:22:41 36° ENE 22:22:41 36° ENE
YAOGAN 6 3.1 22:24:53 54° WSW 22:25:06 55° W 22:28:47 10° NNW
CZ-4C R/B 4.3 22:26:37 40° NE 22:26:37 40° NE 22:30:17 10° N
Cosmos 2322 Rocket 2.1 22:22:40 10° SSW 22:28:17 84° WNW 22:33:57 10° NNE
Cosmos 1666 4.3 22:29:09 18° SW 22:31:21 33° WNW 22:34:51 10° N
SL-08 RB Rocket 3.6 22:31:48 77° SE 22:32:04 82° ENE 22:36:43 10° NNW
USA 215 3.5 22:30:30 34° E 22:33:20 61° NNE 22:39:46 10° NW
Cosmos 2058 Rocket 4.4 22:30:30 14° SW 22:34:05 40° WNW 22:38:21 10° N
Cosmos 1707 3.5 22:30:58 10° N 22:33:53 44° NNE 22:33:53 44° NNE
Cosmos 2233 Rocket 3.9 22:32:25 38° S 22:34:59 86° E 22:41:17 10° N
SL-19 R/B 4.0 22:32:31 10° NNE 22:37:59 84° ESE 22:39:04 58° S
Cosmos 2322 4.4 22:39:37 38° ENE 22:39:37 38° ENE 22:43:37 10° NE
CARTOSAT-1 4.2 22:44:25 46° NE 22:44:25 46° NE 22:47:51 10° N
IGS 5A 4.5 22:48:08 38° NNE 22:48:08 38° NNE 22:51:05 10° N
Meteor 2-5 Rocket 3.8 22:42:50 10° NNW 22:48:46 79° W 22:49:53 60° S
H-2A R/B 1.9 22:52:33 77° NE 22:52:33 77° NE 22:57:19 10° NNW
Meteor 1-24 Rocket 3.8 22:46:46 10° N 22:52:49 70° ENE 22:53:16 67° ESE
Cosmos 1538 Rocket 4.4 22:56:02 52° ENE 22:56:02 52° ENE 23:00:19 10° NNE
COSMOS 2428 4.2 23:06:32 23° ENE 23:06:32 23° ENE 23:08:59 10° NE
Cosmos 2034 Rocket 4.2 23:05:25 52° ENE 23:05:25 52° ENE 23:10:55 10° NNE
Cosmos 1812 Rocket 4.3 23:06:53 51° NW 23:06:53 51° NW 23:10:38 10° N
Cosmos 2278 Rocket 3.4 23:04:23 10° NNW 23:09:23 31° NE 23:09:42 30° NE
ARGOS 4.1 23:15:50 35° WSW 23:16:43 38° W 23:21:44 10° NNW
BREEZE-M DEB (TANK) 4.2 23:06:51 10° WNW 23:21:25 48° SW 23:21:51 47° SW
Cosmos 1844 Rocket 2.9 23:18:43 10° NNW 23:23:44 63° NNE 23:23:44 63° NNE
Cosmos 1513 Rocket 4.4 23:25:10 79° ENE 23:25:10 79° ENE 23:31:17 10° N
Cosmos 1464 Rocket 3.9 23:24:57 79° SW 23:25:20 85° W 23:31:43 10° N
Cosmos 371 Rocket 4.4 23:25:06 38° W 23:25:50 41° WNW 23:30:26 10° N
SL-16 R/B 3.6 23:22:39 10° WSW 23:27:51 36° NW 23:33:04 10° NNE
Nadezhda 4 Rocket 4.0 23:25:42 10° N 23:31:46 71° ENE 23:31:46 71° ENE
Cosmos 1844 4.0 23:31:15 10° NNW 23:36:12 59° NNE 23:36:12 59° NNE
Cosmos 2360 Rocket 2.4 23:37:26 65° NW 23:37:26 65° NW 23:43:02 10° NNE
ATLAS 3B R/B 4.2 23:44:43 26° ENE 23:44:43 26° ENE 23:48:14 10° NE
Terra 3.2 23:50:24 33° WNW 23:50:24 33° WNW 23:53:47 10° NNW
